Location: Dallas
(32.7830°N, 96.8000°W)
Time: 21:38:36
(UTC-06:00)

Tiangong 1 - Visible Passes

Search period start: 18 February 2018 00:00
Search period end: 28 February 2018 00:00
Orbit: 249 x 271 km, 42.8° (Epoch: 18 February)

Date Brightness Start Highest point End Pass type
(mag) Time Alt. Az. Time Alt. Az. Time Alt. Az.
18 Feb 1.7 06:12:45 17° NNW 06:14:05 31° NNE 06:16:12 10° E visible
19 Feb 0.6 06:07:45 28° NW 06:08:42 59° NNE 06:10:58 10° ESE visible
20 Feb 0.2 06:02:36 48° W 06:03:01 64° SSW 06:05:16 10° SE visible
21 Feb 1.5 05:57:19 28° SSW 05:57:19 28° SSW 05:59:05 10° SSE visible
22 Feb 3.0 05:51:53 12° S 05:51:53 12° S 05:52:14 10° S visible
26 Feb 3.4 19:49:20 10° SSW 19:49:22 10° SSW 19:49:22 10° SSW visible
27 Feb 1.9 19:41:21 10° SW 19:42:40 28° SSW 19:42:40 28° SSW visible
